Year,Month,Day,Hour,Minute,Value (Times are PST for windgust in km/hr)
2010,05,04,00,00,8.10
2010,05,04,00,01,6.40
2010,05,04,00,02,20.90
2010,05,04,00,03,17.70
2010,05,04,00,04,22.50
2010,05,04,00,05,14.50
2010,05,04,00,06,12.90
2010,05,04,00,07,16.10
2010,05,04,00,08,11.30
2010,05,04,00,09,9.60
2010,05,04,00,10,19.30
2010,05,04,00,11,19.30
2010,05,04,00,12,11.30
2010,05,04,00,13,14.50
2010,05,04,00,14,8.10
2010,05,04,00,15,4.80
2010,05,04,00,16,6.40
2010,05,04,00,17,4.80
2010,05,04,00,18,8.10
2010,05,04,00,19,8.10
2010,05,04,00,20,3.20
2010,05,04,00,21,3.20
2010,05,04,00,22,4.80
2010,05,04,00,23,3.20
2010,05,04,00,24,1.60
2010,05,04,00,25,1.60
2010,05,04,00,26,4.80
2010,05,04,00,27,1.60
2010,05,04,00,36,6.40
2010,05,04,00,37,6.40
2010,05,04,00,38,6.40
2010,05,04,00,39,3.20
2010,05,04,00,40,8.10
2010,05,04,00,41,3.20
2010,05,04,00,42,1.60
2010,05,04,00,43,4.80
2010,05,04,00,44,4.80
2010,05,04,00,45,3.20
2010,05,04,00,46,8.10
2010,05,04,00,47,4.80
2010,05,04,00,48,1.60
2010,05,04,00,49,4.80
2010,05,04,00,50,8.10
2010,05,04,00,51,8.10
2010,05,04,00,52,1.60
2010,05,04,00,53,4.80
2010,05,04,00,54,4.80
2010,05,04,00,55,4.80
2010,05,04,00,56,6.40
2010,05,04,00,57,6.40
2010,05,04,00,58,6.40
2010,05,04,00,59,3.20
2010,05,04,01,02,3.20
2010,05,04,01,03,1.60
2010,05,04,01,06,1.60
2010,05,04,01,09,1.60
2010,05,04,01,10,3.20
2010,05,04,01,11,3.20
2010,05,04,01,12,1.60
2010,05,04,01,13,3.20
2010,05,04,01,14,3.20
2010,05,04,01,15,3.20
2010,05,04,01,16,1.60
2010,05,04,01,17,4.80
2010,05,04,01,18,1.60
2010,05,04,01,19,1.60
2010,05,04,01,20,3.20
2010,05,04,01,21,4.80
2010,05,04,01,22,4.80
2010,05,04,01,23,3.20
2010,05,04,01,24,4.80
2010,05,04,01,25,4.80
2010,05,04,01,26,3.20
2010,05,04,01,27,4.80
2010,05,04,01,28,1.60
2010,05,04,01,29,3.20
2010,05,04,01,30,3.20
2010,05,04,01,31,1.60
2010,05,04,01,32,3.20
2010,05,04,01,33,4.80
2010,05,04,01,34,6.40
2010,05,04,01,35,4.80
2010,05,04,01,36,4.80
2010,05,04,01,37,4.80
2010,05,04,01,38,3.20
2010,05,04,01,39,4.80
2010,05,04,01,40,3.20
2010,05,04,01,41,4.80
2010,05,04,01,42,3.20
2010,05,04,01,43,8.10
2010,05,04,01,44,4.80
2010,05,04,01,45,3.20
2010,05,04,01,46,4.80
2010,05,04,01,47,4.80
2010,05,04,01,48,4.80
2010,05,04,01,49,3.20
2010,05,04,01,50,1.60
2010,05,04,01,51,3.20
2010,05,04,01,52,1.60
2010,05,04,01,53,1.60
2010,05,04,01,54,1.60
2010,05,04,01,57,1.60
2010,05,04,02,11,1.60
2010,05,04,02,15,1.60
2010,05,04,02,18,1.60
2010,05,04,02,19,1.60
2010,05,04,02,20,1.60
2010,05,04,02,22,1.60
2010,05,04,02,23,1.60
2010,05,04,02,24,1.60
2010,05,04,02,25,1.60
2010,05,04,02,26,1.60
2010,05,04,02,27,1.60
2010,05,04,02,29,1.60
2010,05,04,02,30,4.80
2010,05,04,02,31,1.60
2010,05,04,02,32,1.60
2010,05,04,02,34,3.20
2010,05,04,02,35,1.60
2010,05,04,02,36,3.20
2010,05,04,02,37,3.20
2010,05,04,02,38,1.60
2010,05,04,02,39,1.60
2010,05,04,02,46,3.20
2010,05,04,02,47,1.60
2010,05,04,02,48,1.60
2010,05,04,02,55,1.60
2010,05,04,02,56,3.20
2010,05,04,02,57,1.60
2010,05,04,03,03,1.60
2010,05,04,03,09,1.60
2010,05,04,03,12,4.80
2010,05,04,03,13,3.20
2010,05,04,03,14,1.60
2010,05,04,03,15,3.20
2010,05,04,03,16,1.60
2010,05,04,03,17,1.60
2010,05,04,03,19,1.60
2010,05,04,03,20,1.60
2010,05,04,03,22,3.20
2010,05,04,03,25,1.60
2010,05,04,03,26,1.60
2010,05,04,03,27,3.20
2010,05,04,03,28,1.60
2010,05,04,03,30,1.60
2010,05,04,03,31,1.60
2010,05,04,03,32,3.20
2010,05,04,03,33,1.60
2010,05,04,03,34,3.20
2010,05,04,03,35,3.20
2010,05,04,03,36,1.60
2010,05,04,03,37,3.20
2010,05,04,03,38,3.20
2010,05,04,03,40,1.60
2010,05,04,03,41,6.40
2010,05,04,03,42,4.80
2010,05,04,03,43,1.60
2010,05,04,03,46,3.20
2010,05,04,03,47,3.20
2010,05,04,03,48,1.60
2010,05,04,03,50,1.60
2010,05,04,04,00,1.60
2010,05,04,04,07,1.60
2010,05,04,04,08,1.60
2010,05,04,04,09,3.20
2010,05,04,04,10,4.80
2010,05,04,04,11,3.20
2010,05,04,04,12,3.20
2010,05,04,04,13,3.20
2010,05,04,04,14,3.20
2010,05,04,04,18,1.60
2010,05,04,04,25,1.60
2010,05,04,04,26,3.20
2010,05,04,04,27,1.60
2010,05,04,04,28,1.60
2010,05,04,04,29,3.20
2010,05,04,04,30,1.60
2010,05,04,04,32,1.60
2010,05,04,04,33,3.20
2010,05,04,04,34,4.80
2010,05,04,04,35,4.80
2010,05,04,04,37,3.20
2010,05,04,04,38,1.60
2010,05,04,04,40,1.60
2010,05,04,04,41,1.60
2010,05,04,04,42,1.60
2010,05,04,05,23,1.60
2010,05,04,05,25,1.60
2010,05,04,05,26,3.20
2010,05,04,05,27,3.20
2010,05,04,05,28,1.60
2010,05,04,05,46,1.60
2010,05,04,05,47,1.60
2010,05,04,05,48,1.60
2010,05,04,05,50,1.60
2010,05,04,05,51,1.60
2010,05,04,06,11,1.60
2010,05,04,06,12,1.60
2010,05,04,06,39,1.60
2010,05,04,06,41,1.60
2010,05,04,07,43,1.60
2010,05,04,07,44,1.60
2010,05,04,07,45,1.60
2010,05,04,07,46,1.60
2010,05,04,07,50,1.60
2010,05,04,07,53,1.60
2010,05,04,07,55,1.60
2010,05,04,07,56,8.10
2010,05,04,07,57,4.80
2010,05,04,07,58,4.80
2010,05,04,07,59,1.60
2010,05,04,08,00,3.20
2010,05,04,08,01,4.80
2010,05,04,08,02,3.20
2010,05,04,08,03,6.40
2010,05,04,08,04,8.10
2010,05,04,08,05,4.80
2010,05,04,08,06,4.80
2010,05,04,08,07,3.20
2010,05,04,08,08,6.40
2010,05,04,08,09,4.80
2010,05,04,08,10,4.80
2010,05,04,08,11,14.50
2010,05,04,08,12,14.50
2010,05,04,08,13,4.80
2010,05,04,08,14,6.40
2010,05,04,08,15,4.80
2010,05,04,08,16,3.20
2010,05,04,08,17,6.40
2010,05,04,08,18,4.80
2010,05,04,08,19,4.80
2010,05,04,08,20,4.80
2010,05,04,08,21,4.80
2010,05,04,08,22,6.40
2010,05,04,08,24,1.60
2010,05,04,08,25,6.40
2010,05,04,08,26,3.20
2010,05,04,08,27,4.80
2010,05,04,08,28,3.20
2010,05,04,08,29,6.40
2010,05,04,08,30,3.20
2010,05,04,08,31,3.20
2010,05,04,08,32,1.60
2010,05,04,08,33,3.20
2010,05,04,08,34,6.40
2010,05,04,08,35,3.20
2010,05,04,08,36,6.40
2010,05,04,08,37,8.10
2010,05,04,08,38,6.40
2010,05,04,08,39,4.80
2010,05,04,08,40,4.80
2010,05,04,08,41,8.10
2010,05,04,08,42,4.80
2010,05,04,08,43,1.60
2010,05,04,08,44,4.80
2010,05,04,08,45,6.40
2010,05,04,08,46,9.60
2010,05,04,08,47,8.10
2010,05,04,08,48,6.40
2010,05,04,08,49,8.10
2010,05,04,08,50,3.20
2010,05,04,08,51,8.10
2010,05,04,08,52,8.10
2010,05,04,08,53,1.60
2010,05,04,08,54,4.80
2010,05,04,08,55,9.60
2010,05,04,08,56,6.40
2010,05,04,08,57,1.60
2010,05,04,08,58,1.60
2010,05,04,08,59,4.80
2010,05,04,09,00,8.10
2010,05,04,09,01,1.60
2010,05,04,09,02,1.60
2010,05,04,09,03,3.20
2010,05,04,09,04,4.80
2010,05,04,09,05,3.20
2010,05,04,09,06,3.20
2010,05,04,09,07,4.80
2010,05,04,09,08,4.80
2010,05,04,09,09,6.40
2010,05,04,09,10,6.40
2010,05,04,09,11,9.60
2010,05,04,09,12,11.30
2010,05,04,09,13,11.30
2010,05,04,09,14,16.10
2010,05,04,09,15,9.60
2010,05,04,09,16,6.40
2010,05,04,09,17,8.10
2010,05,04,09,18,3.20
2010,05,04,09,19,1.60
2010,05,04,09,20,3.20
2010,05,04,09,21,8.10
2010,05,04,09,22,8.10
2010,05,04,09,23,6.40
2010,05,04,09,24,6.40
2010,05,04,09,25,9.60
2010,05,04,09,26,4.80
2010,05,04,09,27,9.60
2010,05,04,09,28,11.30
2010,05,04,09,29,11.30
2010,05,04,09,30,8.10
2010,05,04,09,31,14.50
2010,05,04,09,32,8.10
2010,05,04,09,33,6.40
2010,05,04,09,34,6.40
2010,05,04,09,35,9.60
2010,05,04,09,36,8.10
2010,05,04,09,37,9.60
2010,05,04,09,38,9.60
2010,05,04,09,39,12.90
2010,05,04,09,40,11.30
2010,05,04,09,41,9.60
2010,05,04,09,42,11.30
2010,05,04,09,43,8.10
2010,05,04,09,44,20.90
2010,05,04,09,45,17.70
2010,05,04,09,46,11.30
2010,05,04,09,47,16.10
2010,05,04,09,48,14.50
2010,05,04,09,49,16.10
2010,05,04,09,50,9.60
2010,05,04,09,51,9.60
2010,05,04,09,52,16.10
2010,05,04,09,53,14.50
2010,05,04,09,54,11.30
2010,05,04,09,55,9.60
2010,05,04,09,56,8.10
2010,05,04,09,57,14.50
2010,05,04,09,58,16.10
2010,05,04,09,59,16.10
2010,05,04,10,00,24.20
2010,05,04,10,01,19.30
2010,05,04,10,02,19.30
2010,05,04,10,03,19.30
2010,05,04,10,04,24.20
2010,05,04,10,05,17.70
2010,05,04,10,06,14.50
2010,05,04,10,07,19.30
2010,05,04,10,08,20.90
2010,05,04,10,09,14.50
2010,05,04,10,10,9.60
2010,05,04,10,11,9.60
2010,05,04,10,12,8.10
2010,05,04,10,13,6.40
2010,05,04,10,14,8.10
2010,05,04,10,15,12.90
2010,05,04,10,16,17.70
2010,05,04,10,17,22.50
2010,05,04,10,18,19.30
2010,05,04,10,19,19.30
2010,05,04,10,20,11.30
2010,05,04,10,21,6.40
2010,05,04,10,22,9.60
2010,05,04,10,23,20.90
2010,05,04,10,24,16.10
2010,05,04,10,25,19.30
2010,05,04,10,26,8.10
2010,05,04,10,27,6.40
2010,05,04,10,28,8.10
2010,05,04,10,29,14.50
2010,05,04,10,30,19.30
2010,05,04,10,31,11.30
2010,05,04,10,32,19.30
2010,05,04,10,33,24.20
2010,05,04,10,34,27.40
2010,05,04,10,35,22.50
2010,05,04,10,36,20.90
2010,05,04,10,37,22.50
2010,05,04,10,38,25.70
2010,05,04,10,39,20.90
2010,05,04,10,40,11.30
2010,05,04,10,41,19.30
2010,05,04,10,42,27.40
2010,05,04,10,43,11.30
2010,05,04,10,44,16.10
2010,05,04,10,45,14.50
2010,05,04,10,46,25.70
2010,05,04,10,47,29.00
2010,05,04,10,48,24.20
2010,05,04,10,49,22.50
2010,05,04,10,50,20.90
2010,05,04,10,51,22.50
2010,05,04,10,52,16.10
2010,05,04,10,53,25.70
2010,05,04,10,54,19.30
2010,05,04,10,55,22.50
2010,05,04,10,56,14.50
2010,05,04,10,57,22.50
2010,05,04,10,58,17.70
2010,05,04,10,59,24.20
2010,05,04,11,00,16.10
2010,05,04,11,01,17.70
2010,05,04,11,02,11.30
2010,05,04,11,03,6.40
2010,05,04,11,04,14.50
2010,05,04,11,05,14.50
2010,05,04,11,06,16.10
2010,05,04,11,07,14.50
2010,05,04,11,08,11.30
2010,05,04,11,09,8.10
2010,05,04,11,10,14.50
2010,05,04,11,11,11.30
2010,05,04,11,12,16.10
2010,05,04,11,13,14.50
2010,05,04,11,14,9.60
2010,05,04,11,15,6.40
2010,05,04,11,16,16.10
2010,05,04,11,17,16.10
2010,05,04,11,18,11.30
2010,05,04,11,19,9.60
2010,05,04,11,20,11.30
2010,05,04,11,21,8.10
2010,05,04,11,22,9.60
2010,05,04,11,23,6.40
2010,05,04,11,24,9.60
2010,05,04,11,25,19.30
2010,05,04,11,26,17.70
2010,05,04,11,27,9.60
2010,05,04,11,28,9.60
2010,05,04,11,29,14.50
2010,05,04,11,30,16.10
2010,05,04,11,31,17.70
2010,05,04,11,32,16.10
2010,05,04,11,33,16.10
2010,05,04,11,34,14.50
2010,05,04,11,35,8.10
2010,05,04,11,36,11.30
2010,05,04,11,37,16.10
2010,05,04,11,38,8.10
2010,05,04,11,39,6.40
2010,05,04,11,40,8.10
2010,05,04,11,41,20.90
2010,05,04,11,42,11.30
2010,05,04,11,43,14.50
2010,05,04,11,44,17.70
2010,05,04,11,45,9.60
2010,05,04,11,46,20.90
2010,05,04,11,47,22.50
2010,05,04,11,48,17.70
2010,05,04,11,49,25.70
2010,05,04,11,50,14.50
2010,05,04,11,51,11.30
2010,05,04,11,52,11.30
2010,05,04,11,53,19.30
2010,05,04,11,54,24.20
2010,05,04,11,55,14.50
2010,05,04,11,56,9.60
2010,05,04,11,57,14.50
2010,05,04,11,58,6.40
2010,05,04,11,59,19.30
2010,05,04,12,00,27.40
2010,05,04,12,01,29.00
2010,05,04,12,02,45.10
2010,05,04,12,03,38.60
2010,05,04,12,04,33.80
2010,05,04,12,05,17.70
2010,05,04,12,06,17.70
2010,05,04,12,07,14.50
2010,05,04,12,08,17.70
2010,05,04,12,09,20.90
2010,05,04,12,10,8.10
2010,05,04,12,11,6.40
2010,05,04,12,12,8.10
2010,05,04,12,13,11.30
2010,05,04,12,14,8.10
2010,05,04,12,15,3.20
2010,05,04,12,16,8.10
2010,05,04,12,17,8.10
2010,05,04,12,18,3.20
2010,05,04,12,19,8.10
2010,05,04,12,20,6.40
2010,05,04,12,21,3.20
2010,05,04,12,22,6.40
2010,05,04,12,23,1.60
2010,05,04,12,24,3.20
2010,05,04,12,25,3.20
2010,05,04,12,28,1.60
2010,05,04,12,29,6.40
2010,05,04,12,30,8.10
2010,05,04,12,31,6.40
2010,05,04,12,32,3.20
2010,05,04,12,33,1.60
2010,05,04,12,34,1.60
2010,05,04,12,38,3.20
2010,05,04,12,39,3.20
2010,05,04,12,40,1.60
2010,05,04,12,41,6.40
2010,05,04,12,42,6.40
2010,05,04,12,43,4.80
2010,05,04,12,44,3.20
2010,05,04,12,45,4.80
2010,05,04,12,46,1.60
2010,05,04,12,47,3.20
2010,05,04,12,48,3.20
2010,05,04,12,49,3.20
2010,05,04,12,50,1.60
2010,05,04,12,51,1.60
2010,05,04,12,52,4.80
2010,05,04,12,53,8.10
2010,05,04,12,54,6.40
2010,05,04,12,55,1.60
2010,05,04,12,57,1.60
2010,05,04,12,58,1.60
2010,05,04,12,59,1.60
2010,05,04,13,00,3.20
2010,05,04,13,01,1.60
2010,05,04,13,02,6.40
2010,05,04,13,03,6.40
2010,05,04,13,04,6.40
2010,05,04,13,05,3.20
2010,05,04,13,08,1.60
2010,05,04,13,09,1.60
2010,05,04,13,10,1.60
2010,05,04,13,11,1.60
2010,05,04,13,14,1.60
2010,05,04,13,15,1.60
2010,05,04,13,16,4.80
2010,05,04,13,17,9.60
2010,05,04,13,18,8.10
2010,05,04,13,19,4.80
2010,05,04,13,20,4.80
2010,05,04,13,21,3.20
2010,05,04,13,22,3.20
2010,05,04,13,23,1.60
2010,05,04,13,24,3.20
2010,05,04,13,25,1.60
2010,05,04,13,27,1.60
2010,05,04,13,28,1.60
2010,05,04,13,42,1.60
2010,05,04,13,47,1.60
2010,05,04,13,48,6.40
2010,05,04,13,49,8.10
2010,05,04,13,50,4.80
2010,05,04,13,51,1.60
2010,05,04,13,53,1.60
2010,05,04,13,54,1.60
2010,05,04,13,55,1.60
2010,05,04,13,56,1.60
2010,05,04,14,00,1.60
2010,05,04,14,01,1.60
2010,05,04,14,02,3.20
2010,05,04,14,03,3.20
2010,05,04,14,04,1.60
2010,05,04,14,05,1.60
2010,05,04,14,06,1.60
2010,05,04,14,07,3.20
2010,05,04,14,08,3.20
2010,05,04,14,09,3.20
2010,05,04,14,10,3.20
2010,05,04,14,11,1.60
2010,05,04,14,12,3.20
2010,05,04,14,13,4.80
2010,05,04,14,14,8.10
2010,05,04,14,15,6.40
2010,05,04,14,16,8.10
2010,05,04,14,17,4.80
2010,05,04,14,18,1.60
2010,05,04,14,19,1.60
2010,05,04,14,20,1.60
2010,05,04,14,21,3.20
2010,05,04,14,22,1.60
2010,05,04,14,23,6.40
2010,05,04,14,24,8.10
2010,05,04,14,25,4.80
2010,05,04,14,26,3.20
2010,05,04,14,27,3.20
2010,05,04,14,28,6.40
2010,05,04,14,29,6.40
2010,05,04,14,30,4.80
2010,05,04,14,31,4.80
2010,05,04,14,32,1.60
2010,05,04,14,33,1.60
2010,05,04,14,34,1.60
2010,05,04,14,35,1.60
2010,05,04,14,36,1.60
2010,05,04,14,37,1.60
2010,05,04,14,39,1.60
2010,05,04,14,40,1.60
2010,05,04,14,45,1.60
2010,05,04,14,46,1.60
2010,05,04,14,52,1.60
2010,05,04,14,53,1.60
2010,05,04,14,54,1.60
2010,05,04,14,55,1.60
2010,05,04,14,57,3.20
2010,05,04,14,58,6.40
2010,05,04,14,59,6.40
2010,05,04,15,00,4.80
2010,05,04,15,01,3.20
2010,05,04,15,02,4.80
2010,05,04,15,03,6.40
2010,05,04,15,04,6.40
2010,05,04,15,05,4.80
2010,05,04,15,06,3.20
2010,05,04,15,09,1.60
2010,05,04,15,10,3.20
2010,05,04,15,11,3.20
2010,05,04,15,12,4.80
2010,05,04,15,13,4.80
2010,05,04,15,14,3.20
2010,05,04,15,15,3.20
2010,05,04,15,16,4.80
2010,05,04,15,17,6.40
2010,05,04,15,18,6.40
2010,05,04,15,19,4.80
2010,05,04,15,20,4.80
2010,05,04,15,21,3.20
2010,05,04,15,22,6.40
2010,05,04,15,23,9.60
2010,05,04,15,24,8.10
2010,05,04,15,25,4.80
2010,05,04,15,26,8.10
2010,05,04,15,27,9.60
2010,05,04,15,28,9.60
2010,05,04,15,29,8.10
2010,05,04,15,30,9.60
2010,05,04,15,31,11.30
2010,05,04,15,32,11.30
2010,05,04,15,33,9.60
2010,05,04,15,34,4.80
2010,05,04,15,35,1.60
2010,05,04,15,36,3.20
2010,05,04,15,37,1.60
2010,05,04,15,38,1.60
2010,05,04,15,39,1.60
2010,05,04,15,40,1.60
2010,05,04,15,41,1.60
2010,05,04,15,47,4.80
2010,05,04,15,48,1.60
2010,05,04,15,49,1.60
2010,05,04,15,50,4.80
2010,05,04,15,51,4.80
2010,05,04,15,52,3.20
2010,05,04,15,58,4.80
2010,05,04,15,59,3.20
2010,05,04,16,00,3.20
2010,05,04,16,01,1.60
2010,05,04,16,02,4.80
2010,05,04,16,03,3.20
2010,05,04,16,05,1.60
2010,05,04,16,06,3.20
2010,05,04,16,07,4.80
2010,05,04,16,08,1.60
2010,05,04,16,11,1.60
2010,05,04,16,12,3.20
2010,05,04,16,13,3.20
2010,05,04,16,14,3.20
2010,05,04,16,15,6.40
2010,05,04,16,16,6.40
2010,05,04,16,17,3.20
2010,05,04,16,18,4.80
2010,05,04,16,19,6.40
2010,05,04,16,20,4.80
2010,05,04,16,21,6.40
2010,05,04,16,22,1.60
2010,05,04,16,23,1.60
2010,05,04,16,25,1.60
2010,05,04,16,26,1.60
2010,05,04,16,27,1.60
2010,05,04,16,30,3.20
2010,05,04,16,31,1.60
2010,05,04,16,35,1.60
2010,05,04,16,38,1.60
2010,05,04,16,39,8.10
2010,05,04,16,40,4.80
2010,05,04,16,41,3.20
2010,05,04,16,44,1.60
2010,05,04,16,45,1.60
2010,05,04,16,46,1.60
2010,05,04,16,47,4.80
2010,05,04,16,48,4.80
2010,05,04,16,49,4.80
2010,05,04,16,50,6.40
2010,05,04,16,51,3.20
2010,05,04,16,52,1.60
2010,05,04,16,53,4.80
2010,05,04,16,54,4.80
2010,05,04,16,55,4.80
2010,05,04,16,56,3.20
2010,05,04,16,57,4.80
2010,05,04,16,58,4.80
2010,05,04,16,59,4.80
2010,05,04,17,00,4.80
2010,05,04,17,01,6.40
2010,05,04,17,02,11.30
2010,05,04,17,03,6.40
2010,05,04,17,04,4.80
2010,05,04,17,05,3.20
2010,05,04,17,06,9.60
2010,05,04,17,07,4.80
2010,05,04,17,08,3.20
2010,05,04,17,09,3.20
2010,05,04,17,11,1.60
2010,05,04,17,12,9.60
2010,05,04,17,13,9.60
2010,05,04,17,14,11.30
2010,05,04,17,15,11.30
2010,05,04,17,16,11.30
2010,05,04,17,17,8.10
2010,05,04,17,18,8.10
2010,05,04,17,19,6.40
2010,05,04,17,20,1.60
2010,05,04,17,21,4.80
2010,05,04,17,22,6.40
2010,05,04,17,23,6.40
2010,05,04,17,24,1.60
2010,05,04,17,25,1.60
2010,05,04,17,26,9.60
2010,05,04,17,27,8.10
2010,05,04,17,28,11.30
2010,05,04,17,29,8.10
2010,05,04,17,30,4.80
2010,05,04,17,31,3.20
2010,05,04,17,32,8.10
2010,05,04,17,33,1.60
2010,05,04,17,34,4.80
2010,05,04,17,35,1.60
2010,05,04,17,36,3.20
2010,05,04,17,37,4.80
2010,05,04,17,38,1.60
2010,05,04,17,39,4.80
2010,05,04,17,40,8.10
2010,05,04,17,41,9.60
2010,05,04,17,42,4.80
2010,05,04,17,43,8.10
2010,05,04,17,44,8.10
2010,05,04,17,45,12.90
2010,05,04,17,46,6.40
2010,05,04,17,47,3.20
2010,05,04,17,48,6.40
2010,05,04,17,49,4.80
2010,05,04,17,50,6.40
2010,05,04,17,51,6.40
2010,05,04,17,52,6.40
2010,05,04,17,53,6.40
2010,05,04,17,54,6.40
2010,05,04,17,55,1.60
2010,05,04,17,56,3.20
2010,05,04,17,57,3.20
2010,05,04,17,58,4.80
2010,05,04,17,59,3.20
2010,05,04,18,00,3.20
2010,05,04,18,01,4.80
2010,05,04,18,02,4.80
2010,05,04,18,03,3.20
2010,05,04,18,04,4.80
2010,05,04,18,05,1.60
2010,05,04,18,07,1.60
2010,05,04,18,09,3.20
2010,05,04,18,10,4.80
2010,05,04,18,11,6.40
2010,05,04,18,12,3.20
2010,05,04,18,13,1.60
2010,05,04,18,14,1.60
2010,05,04,18,18,1.60
2010,05,04,18,19,4.80
2010,05,04,18,20,4.80
2010,05,04,18,21,3.20
2010,05,04,18,22,1.60
2010,05,04,18,23,1.60
2010,05,04,18,24,4.80
2010,05,04,18,25,4.80
2010,05,04,18,26,1.60
2010,05,04,18,28,4.80
2010,05,04,18,29,3.20
2010,05,04,18,30,3.20
2010,05,04,18,31,1.60
2010,05,04,18,32,4.80
2010,05,04,18,33,8.10
2010,05,04,18,34,6.40
2010,05,04,18,38,1.60
2010,05,04,18,39,1.60
2010,05,04,18,40,1.60
2010,05,04,18,41,1.60
2010,05,04,18,45,3.20
2010,05,04,18,46,1.60
2010,05,04,18,47,1.60
2010,05,04,18,48,1.60
2010,05,04,18,50,1.60
2010,05,04,18,51,1.60
2010,05,04,18,52,3.20
2010,05,04,18,53,4.80
2010,05,04,18,54,4.80
2010,05,04,18,55,4.80
2010,05,04,18,56,3.20
2010,05,04,18,59,3.20
2010,05,04,19,00,6.40
2010,05,04,19,01,6.40
2010,05,04,19,02,8.10
2010,05,04,19,03,8.10
2010,05,04,19,04,6.40
2010,05,04,19,05,8.10
2010,05,04,19,06,4.80
2010,05,04,19,07,6.40
2010,05,04,19,08,4.80
2010,05,04,19,09,8.10
2010,05,04,19,10,8.10
2010,05,04,19,11,14.50
2010,05,04,19,12,9.60
2010,05,04,19,13,6.40
2010,05,04,19,14,3.20
2010,05,04,19,15,1.60
2010,05,04,19,16,3.20
2010,05,04,19,17,3.20
2010,05,04,19,18,6.40
2010,05,04,19,19,3.20
2010,05,04,19,20,3.20
2010,05,04,19,21,3.20
2010,05,04,19,22,3.20
2010,05,04,19,23,3.20
2010,05,04,19,24,1.60
2010,05,04,19,25,3.20
2010,05,04,19,26,8.10
2010,05,04,19,27,6.40
2010,05,04,19,28,8.10
2010,05,04,19,29,4.80
2010,05,04,19,30,3.20
2010,05,04,19,31,3.20
2010,05,04,19,32,1.60
2010,05,04,19,33,1.60
2010,05,04,19,35,1.60
2010,05,04,19,39,1.60
2010,05,04,19,53,1.60
2010,05,04,20,01,1.60
2010,05,04,20,03,1.60
2010,05,04,20,06,1.60
2010,05,04,20,18,1.60
